[[{"header":{"parameterUnit":"m.s-1","parameterCategory":1,"la1":30.2991,"la2":30.254,"lo1":-89.0895,"lo2":-89.0444,"dy":0.0017,"dx":0.0017,"nx":28,"ny":28,"refTime":"2024-06-09T09:00:00:Z","depth":0,"parameterNumber":2,"parameterNumberName":"U-component_of_WINDS"},"data":[0,0,0,0,0,0,0,0,0,0,0,0,0,0,0,0,0,0,0,0,0,0,0,0,0,0,0,0,0,0,0,0,0,0,0,0,0,0,0,0,0,0,0,0,0,0,0,0,0,0,0,0,0,0,0,0,0,0,-2.8313,-2.8313,0,-2.836,-2.836,-2.8361,-2.8285,-2.8282,-2.8279,-2.8277,-2.8327,-2.833,-2.8334,0,0,0,0,0,0,0,0,0,0,0,0,0,-2.8159,-2.8162,-2.8313,-2.8313,-2.8314,-2.836,-2.836,-2.8361,-2.8285,-2.8282,-2.8279,-2.8276,-2.8325,-2.833,-2.8334,0,0,0,0,0,0,0,0,0,0,0,0,0,-2.8218,-2.8163,-2.8313,-2.8282,-2.8279,-2.836,-2.836,-2.8361,-2.8286,-2.8282,-2.8278,-2.8274,-2.8324,-2.8329,-2.8335,-2.8448,0,0,-2.8352,-2.8355,0,0,0,0,0,0,0,0,-2.8214,-2.8223,-2.8286,-2.8284,-2.8281,-2.8312,-2.8324,-2.839,-2.8287,-2.8283,-2.8277,-2.8272,-2.8325,-2.833,-2.8348,-2.8451,-2.8453,-2.8353,-2.8356,-2.8358,-2.836,0,0,0,0,0,0,0,-2.821,-2.8221,-2.8331,-2.8287,-2.8284,-2.8266,-2.827,-2.8336,-2.8326,-2.8283,-2.8278,-2.8284,-2.8323,-2.8343,-2.8348,-2.8453,-2.8352,-2.8357,-2.8361,-2.8363,-2.8652,-2.8656,0,0,0,0,0,0,-2.821,-2.8218,-2.833,-2.8333,-2.8238,-2.8272,-2.8276,-2.8306,-2.8325,-2.8324,-2.8288,-2.8281,-2.8335,-2.8342,-2.835,-2.8484,-2.8358,-2.8364,-2.8367,-2.8647,-2.8652,-2.8657,0,0,0,0,0,0,-2.8207,-2.8221,-2.8328,-2.8274,-2.8286,-2.8278,-2.8313,-2.8309,-2.8329,-2.8328,-2.8326,-2.831,-2.8332,-2.8342,-2.8424,-2.8485,-2.8366,-2.8371,-2.8642,-2.8649,-2.8655,-2.8754,0,0,0,0,0,0,-2.8203,-2.822,-2.8263,-2.8275,-2.8289,-2.8402,-2.8317,-2.8313,-2.8338,-2.833,-2.8348,-2.8347,-2.833,-2.8416,-2.843,-2.8491,-2.8376,-2.8637,-2.8645,-2.8653,-2.8745,-2.8763,-2.8778,0,0,0,0,0,-2.8198,-2.8289,-2.8265,-2.8279,-2.8343,-2.8405,-2.8413,-2.8391,-2.8344,-2.8387,-2.8386,-2.8347,-2.8476,-2.8425,-2.844,-2.8503,-2.8633,-2.8643,-2.8652,-2.8738,-2.8759,-2.8778,0,0,0,0,0,0,-2.8285,-2.829,-2.8264,-2.8362,-2.8384,-2.8392,-2.8446,-2.8414,-2.845,-2.8441,-2.8412,-2.8417,-2.8505,-2.8512,-2.8456,-2.8614,-2.8546,-2.856,-2.8607,-2.8627,-2.8643,-2.864,-2.838,0,0,0,0,0,-2.8315,-2.8365,-2.8367,-2.8454,-2.8466,-2.8454,-2.8481,-2.8462,-2.8483,-2.8492,-2.8497,-2.852,-2.8566,-2.8596,-2.8638,-2.8745,-2.8748,-2.8796,-2.8812,-2.8826,-2.8838,-2.8895,-2.8917,-2.8689,-2.8689,-2.8688,0,0,-2.8379,-2.8388,-2.8422,-2.8472,-2.8486,-2.8539,-2.8463,-2.8522,-2.8561,-2.8501,-2.8579,-2.8584,-2.8607,-2.8703,-2.8745,-2.8711,-2.8901,-2.8838,-2.8849,-2.8854,-2.8907,-2.8929,-2.8948,-2.8695,-2.8694,-2.8693,0,0,-2.8523,-2.8534,-2.8608,-2.8624,-2.8646,-2.8638,-2.8655,-2.8669,-2.8669,-2.8747,-2.8703,-2.8749,-2.8828,-2.8847,-2.8867,-2.9017,-2.8982,-2.9031,-2.9117,-2.9174,-2.9192,-2.9208,-2.9262,-2.9282,-2.9043,-2.9043,-2.9043,0,-2.86,-2.8677,-2.865,-2.8712,-2.8736,-2.8683,-2.8757,-2.8774,-2.881,-2.8827,-2.8788,-2.8887,-2.8898,-2.8998,-2.9034,-2.9052,-2.9072,-2.903,-2.9191,-2.9207,-2.9221,-2.9273,-2.9293,-2.9049,-2.9048,-2.9048,-2.9047,0,-2.8771,-2.8825,-2.8882,-2.8917,-2.8947,-2.9015,-2.8998,-2.9032,-2.9009,-2.9005,-2.9085,-2.9097,-2.9141,-2.9163,-2.9142,-2.9259,-2.9238,-2.9196,-2.9128,-2.9249,-2.9298,-2.9317,-2.9057,-2.9055,-2.9053,-2.9052,0,0,-2.8973,-2.8991,-2.9012,-2.9027,-2.9048,-2.909,-2.9155,-2.9197,-2.9227,-2.9252,-2.9307,-2.9375,-2.9336,-2.9359,-2.9339,-2.9389,-2.9508,-2.9341,-2.9341,-2.9372,-2.9639,-2.9671,-2.9695,-2.9484,-2.9488,-2.9491,-2.9637,0,-2.9117,-2.923,-2.9207,-2.9317,-2.9368,-2.9318,-2.9375,-2.9394,-2.9391,-2.9434,-2.9431,-2.948,-2.9424,-2.9437,-2.9484,-2.9484,-2.9561,-2.9472,-2.9536,-2.9539,-2.9533,-2.9719,-2.9754,-2.9892,-2.9655,-2.9659,-2.9661,0,-2.93,-2.9332,-2.9448,-2.946,-2.948,-2.9532,-2.9569,-2.961,-2.963,-2.9625,-2.965,-2.9621,-2.9686,-2.9616,-2.9707,-2.9647,-2.9671,-2.9675,-2.968,-2.9686,-2.9608,-2.9732,-2.9935,-2.9957,-2.969,-2.9688,-2.9686,0,-2.9437,-2.9509,-2.9588,-2.9602,-2.9618,-2.9656,-2.9664,-2.968,-2.9707,-2.9739,-2.9756,-2.9795,-2.9818,-2.9849,-2.9832,-2.9782,-2.9926,-2.9854,-2.9924,-2.9925,-2.9958,-2.9956,-3.0169,-2.9971,-2.9971,-2.9971,-2.997,0,-2.9602,-2.9675,-2.965,-2.9699,-2.9779,-2.9751,-2.9832,-2.9834,-2.9849,-2.9898,-2.9856,-2.9903,-2.9876,-2.9921,-2.9908,-2.9985,-2.9995,-2.9993,-2.9989,-2.9998,-2.9999,-3.0015,-3.0005,-2.9976,-2.9975,-2.9974,-2.9973,0,-2.977,-2.9755,-2.9838,-2.9845,-2.9849,-2.9908,-2.9915,-2.996,-2.9954,-3.0016,-3.0029,-3.0019,-3.007,-3.0055,-3.011,-3.01,-3.0199,-3.0182,-3.0192,-3.0189,-3.026,-3.0254,-3.0492,-3.0523,-3.0304,-3.0306,-3.0308,0,-2.9876,-2.9931,-2.9944,-2.9973,-2.9985,-3.0032,-3.0059,-3.0033,-3.0063,-3.009,-3.0132,-3.0179,-3.0215,-3.0297,-3.0296,-3.0337,-3.0322,-3.0402,-3.0328,-3.0335,-3.0325,-3.0323,-3.0328,-3.0418,-3.0421,-3.0423,-3.0424,0,-3.0068,-3.0057,-3.0097,-3.0135,-3.0167,-3.0196,-3.022,-3.0247,-3.0223,-3.0258,-3.0309,-3.0337,-3.0392,-3.0439,-3.0476,-3.0485,-3.0452,-3.0447,-3.0466,-3.0476,-3.0481,-3.0481,-3.0234,-3.0442,-3.0441,-3.0439,-3.0438,-3.0438,-3.0209,-3.0256,-3.0272,-3.0318,-3.0333,-3.0357,-3.04,-3.0398,-3.044,-3.0482,-3.0464,-3.0523,-3.0541,-3.0588,-3.0602,-3.0648,-3.0617,-3.0644,-3.0651,-3.0659,-3.0668,-3.0472,-3.0654,-3.0654,-3.0653,-3.0653,-3.0652,0,-3.04,-3.0407,-3.0449,-3.0484,-3.052,-3.0483,-3.0508,-3.0541,-3.0593,-3.0613,-3.0648,-3.0707,-3.0752,-3.0753,-3.0795,-3.0832,-3.0817,-3.0844,-3.0842,-3.0845,-3.0692,-3.0673,-3.0855,-3.0855,-3.0855,-3.0854,-3.0854,-3.0854,-3.0503,-3.058,-3.0572,-3.0656,-3.0663,-3.0719,-3.0737,-3.0759,-3.0774,-3.0841,-3.0878,-3.0878,-3.089,-3.0933,-3.0973,-3.0972,-3.099,-3.1023,-3.1017,-3.0875,-3.0855,-3.0836,-3.0817,-3.1027,-3.1027,-3.1165,-3.1166,-3.1167]},{"header":{"parameterUnit":"m.s-1","parameterCategory":1,"la1":30.2991,"la2":30.254,"lo1":-89.0895,"lo2":-89.0444,"dy":0.0017,"dx":0.0017,"nx":28,"ny":28,"refTime":"2024-06-09T09:00:00:Z","depth":0,"parameterNumber":3,"parameterNumberName":"V-component_of_WINDS"},"data":[0,0,0,0,0,0,0,0,0,0,0,0,0,0,0,0,0,0,0,0,0,0,0,0,0,0,0,0,0,0,0,0,0,0,0,0,0,0,0,0,0,0,0,0,0,0,0,0,0,0,0,0,0,0,0,0,0,0,-4.3529,-4.353,0,-4.3636,-4.3637,-4.3638,-4.3617,-4.3615,-4.3613,-4.3611,-4.3714,-4.3718,-4.3723,0,0,0,0,0,0,0,0,0,0,0,0,0,-4.33,-4.3305,-4.3529,-4.353,-4.3532,-4.3636,-4.3637,-4.3639,-4.3617,-4.3615,-4.3613,-4.3611,-4.3712,-4.3718,-4.3723,0,0,0,0,0,0,0,0,0,0,0,0,0,-4.3402,-4.3306,-4.3529,-4.3534,-4.3535,-4.3636,-4.3637,-4.3639,-4.3618,-4.3615,-4.3612,-4.3609,-4.3711,-4.3717,-4.3724,-4.3824,0,0,-4.3745,-4.3748,0,0,0,0,0,0,0,0,-4.3397,-4.3411,-4.3532,-4.3534,-4.3536,-4.361,-4.3594,-4.3701,-4.3619,-4.3586,-4.3611,-4.3608,-4.3681,-4.369,-4.3717,-4.3829,-4.3833,-4.3745,-4.3749,-4.3752,-4.3754,0,0,0,0,0,0,0,-4.339,-4.3406,-4.3571,-4.3533,-4.3536,-4.3529,-4.354,-4.3614,-4.3648,-4.3589,-4.3588,-4.3601,-4.3682,-4.371,-4.3719,-4.3835,-4.3745,-4.3751,-4.3755,-4.3758,-4.4034,-4.4037,0,0,0,0,0,0,-4.3382,-4.34,-4.3568,-4.3574,-4.3458,-4.3535,-4.3548,-4.3589,-4.3648,-4.3654,-4.3603,-4.36,-4.37,-4.3711,-4.3722,-4.3843,-4.3752,-4.3759,-4.3763,-4.4031,-4.4035,-4.4038,0,0,0,0,0,0,-4.3377,-4.3397,-4.3563,-4.3487,-4.3508,-4.3542,-4.3589,-4.3593,-4.3621,-4.3659,-4.3664,-4.3626,-4.3698,-4.3713,-4.3799,-4.3846,-4.3762,-4.3768,-4.4027,-4.4032,-4.4037,-4.4086,0,0,0,0,0,0,-4.337,-4.3395,-4.3435,-4.3488,-4.3512,-4.364,-4.3592,-4.3597,-4.3634,-4.363,-4.3682,-4.3687,-4.3697,-4.3789,-4.3806,-4.3854,-4.3773,-4.4023,-4.4029,-4.4035,-4.408,-4.4092,-4.4102,0,0,0,0,0,-4.3362,-4.3443,-4.3437,-4.3457,-4.3563,-4.3643,-4.3657,-4.3668,-4.3638,-4.3677,-4.3701,-4.3686,-4.3839,-4.3798,-4.3817,-4.3868,-4.402,-4.4027,-4.4035,-4.4075,-4.4089,-4.4101,0,0,0,0,0,0,-4.3391,-4.345,-4.3444,-4.3545,-4.359,-4.364,-4.3689,-4.3682,-4.3735,-4.3729,-4.3738,-4.375,-4.3838,-4.3862,-4.3816,-4.3968,-4.3925,-4.3936,-4.3949,-4.3963,-4.3974,-4.3966,-4.3779,0,0,0,0,0,-4.341,-4.3472,-4.3519,-4.3603,-4.3627,-4.3654,-4.369,-4.3695,-4.3741,-4.3759,-4.3789,-4.3833,-4.3891,-4.3928,-4.3983,-4.4084,-4.4094,-4.4128,-4.4139,-4.4148,-4.4157,-4.4212,-4.4227,-4.4062,-4.4062,-4.4062,0,0,-4.3447,-4.3487,-4.3526,-4.361,-4.3646,-4.3709,-4.367,-4.3738,-4.3784,-4.3768,-4.3853,-4.3877,-4.3926,-4.402,-4.4062,-4.4042,-4.4205,-4.4157,-4.4164,-4.4168,-4.4221,-4.4236,-4.425,-4.4067,-4.4066,-4.4066,0,0,-4.3548,-4.3585,-4.366,-4.3697,-4.3752,-4.377,-4.3788,-4.384,-4.3857,-4.3942,-4.3932,-4.3986,-4.4085,-4.4121,-4.4152,-4.4269,-4.4256,-4.4286,-4.4342,-4.4396,-4.4409,-4.442,-4.4461,-4.4476,-4.4296,-4.4296,-4.4296,0,-4.3587,-4.3684,-4.3698,-4.3768,-4.3805,-4.3797,-4.3871,-4.3906,-4.3975,-4.4,-4.3977,-4.4103,-4.4135,-4.4237,-4.4266,-4.4292,-4.4311,-4.428,-4.4406,-4.4418,-4.4429,-4.4468,-4.4484,-4.4299,-4.4299,-4.4298,-4.4298,0,-4.373,-4.3797,-4.385,-4.3921,-4.3964,-4.4035,-4.4059,-4.41,-4.4102,-4.4123,-4.4209,-4.4248,-4.4312,-4.4336,-4.4338,-4.4439,-4.4425,-4.4404,-4.4361,-4.4447,-4.4485,-4.45,-4.4304,-4.4303,-4.4302,-4.4301,0,0,-4.385,-4.3929,-4.3948,-4.398,-4.4042,-4.4093,-4.4164,-4.4229,-4.4264,-4.4313,-4.4372,-4.4457,-4.4439,-4.4474,-4.4479,-4.4526,-4.4616,-4.45,-4.4501,-4.4519,-4.473,-4.4745,-4.4763,-4.4609,-4.4612,-4.4615,-4.4726,0,-4.3956,-4.4084,-4.41,-4.4213,-4.4275,-4.4269,-4.433,-4.4374,-4.4395,-4.4449,-4.4471,-4.4532,-4.4503,-4.4525,-4.4571,-4.4596,-4.4659,-4.4588,-4.4662,-4.4665,-4.465,-4.4782,-4.4798,-4.4901,-4.4741,-4.4743,-4.4745,0,-4.4097,-4.4153,-4.4273,-4.4327,-4.4353,-4.4409,-4.447,-4.4523,-4.4571,-4.4583,-4.4624,-4.4624,-4.4696,-4.4651,-4.475,-4.4701,-4.4733,-4.475,-4.4754,-4.476,-4.471,-4.4791,-4.4935,-4.495,-4.4768,-4.4766,-4.4765,0,-4.4172,-4.4277,-4.4362,-4.439,-4.4455,-4.4495,-4.4523,-4.457,-4.4608,-4.4661,-4.4685,-4.4745,-4.4777,-4.4822,-4.4838,-4.4804,-4.4936,-4.4892,-4.4946,-4.4946,-4.4973,-4.4971,-4.5123,-4.4995,-4.4995,-4.4994,-4.4994,0,-4.4288,-4.4362,-4.4397,-4.445,-4.4532,-4.4549,-4.4629,-4.4655,-4.4697,-4.4753,-4.4751,-4.4803,-4.4821,-4.4876,-4.4888,-4.4968,-4.4983,-4.4993,-4.4995,-4.4993,-4.4992,-4.5013,-4.5006,-4.4999,-4.4998,-4.4997,-4.4996,0,-4.4385,-4.4412,-4.4505,-4.4561,-4.4576,-4.4634,-4.468,-4.4731,-4.4752,-4.4824,-4.4841,-4.4874,-4.4939,-4.496,-4.5037,-4.5045,-4.5138,-4.5134,-4.5123,-4.5123,-4.5176,-4.517,-4.5346,-4.5369,-4.5227,-4.5228,-4.5229,0,-4.4457,-4.4514,-4.4577,-4.4616,-4.4647,-4.4709,-4.4749,-4.4768,-4.4809,-4.487,-4.4913,-4.4978,-4.5031,-4.5135,-4.5164,-4.5224,-4.5221,-4.5278,-4.5229,-4.5226,-4.5221,-4.5217,-4.5223,-4.5287,-4.5288,-4.5289,-4.529,0,-4.4582,-4.4593,-4.4652,-4.4717,-4.4766,-4.4816,-4.4865,-4.4897,-4.4922,-4.4969,-4.5037,-4.5078,-4.5159,-4.5223,-4.5285,-4.5312,-4.5305,-4.5306,-4.5322,-4.5319,-4.531,-4.5316,-4.5147,-4.5301,-4.53,-4.53,-4.5299,-4.5299,-4.4668,-4.4719,-4.4772,-4.4838,-4.4878,-4.4924,-4.4974,-4.5004,-4.5061,-4.5131,-4.5138,-4.5211,-4.5258,-4.534,-4.5371,-4.5427,-4.5411,-4.5433,-4.5439,-4.5444,-4.5448,-4.5303,-4.5438,-4.5438,-4.5438,-4.5438,-4.5437,0,-4.4793,-4.4827,-4.4888,-4.4958,-4.501,-4.5003,-4.5057,-4.5101,-4.5166,-4.5213,-4.5266,-4.5344,-4.5407,-4.5443,-4.5505,-4.5544,-4.5542,-4.5559,-4.5556,-4.5563,-4.546,-4.544,-4.5559,-4.5559,-4.5559,-4.5559,-4.5559,-4.5559,-4.4864,-4.4949,-4.4967,-4.5072,-4.5106,-4.518,-4.5211,-4.5254,-4.5291,-4.538,-4.5433,-4.5457,-4.5499,-4.5565,-4.5622,-4.5631,-4.5653,-4.5673,-4.5679,-4.5582,-4.557,-4.5558,-4.5539,-4.5677,-4.5678,-4.5777,-4.5778,-4.5779]}]]